STARLINK-32689

Last updated on Wed Jan 29 2025 00:02:04 GMT+0000 (Coordinated Universal Time)

1 62440U 24251J 25028.37277796 -.00000820 00000+0 -66825-5 0 9998 2 62440 53.1599 67.1230 0001716 107.1443 252.9754 15.49293381 5761
UTC large
Height (km)
Speed (km/s)
/
Latitude / Longitude
Inclination (degrees)
Orbital Period (minutes)
Azimuth
Elevation
Range (km)
Doppler Factor

Next 0 passes for location: London (51.5072 / 0.1276)

Sorry there are no passes over London.